Probability
3 6 100 100 100 100 100 100 100 94 90 90 90 97 97 94 94 100 100 100 100 100 100 100 100 84 71 61 81 94 100 100 100 97 97 94 87 87 87 84 94 26 87
6 10 100 100 100 100 100 100 100 97 94 97 97 97 94 84 74 84 87 90 94 100 100 97 100 68 42 32 42 58 81 71 39 29 35 48 61 55 52 65 97 48 65
3 13 100 100 100 100 100 100 100 97 97 97 97 97 97 87 68 58 61 61 65 65 68 77 71 65 45 13 16 16 39 35 23 19 77 39 32 48 26 39 61 58 35
0 3 71 100 100 100 100 100 100 100 100 100 100 100 97 84 71 39 39 26 19 23 35 52 61 68 39 13 6 3 3 19 32 48 58 84 19 61 45 3 10 10 6
0 0 100 100 100 100 100 100 100 100 100 100 100 100 97 94 84 71 48 39 19 13 10 19 26 65 74 55 32 13 13 6 23 23 13 35 32 74 94 48 10 10 6
0 3 100 100 100 100 100 100 100 100 100 100 100 100 100 94 90 77 68 42 29 26 19 23 29 48 77 90 87 81 68 52 48 26 3 10 29 94 100 100 87 61 48
3 29 84 100 100 100 100 100 100 100 100 100 100 97 97 97 87 77 65 39 29 26 29 39 68 65 84 87 94 94 97 94 94 74 65 68 90 100 100 100 100 97 97
13 19 55 100 100 100 100 100 100 100 100 100 100 94 97 94 84 74 65 52 48 39 52 52 74 81 87 94 100 100 100 100 61 13 39 81 100 100 100 97 100 100 100
26 39 13 90 100 100 100 100 100 100 100 100 100 100 97 97 90 84 87 81 77 74 87 87 87 90 94 94 100 100 100 100 100 13 6 35 100 100 97 97 100 100 100
65 58 19 29 94 94 97 100 100 100 100 100 100 100 100 97 97 97 97 97 94 100 100 100 94 97 97 100 100 100 100 100 100 6 0 23 97 100 100 97 100 100 100
84 84 48 23 71 71 48 90 100 100 100 100 100 100 100 100 97 97 97 100 100 100 100 100 100 100 100 100 100 100 100 100 29 3 16 77 100 100 100 100 100 100 100
100 94 90 74 74 65 19 71 84 94 100 100 100 100 100 100 100 100 100 100 100 100 100 100 100 100 100 100 100 100 100 94 77 45 77 100 100 100 100 100 100 100 100
100 100 97 94 100 84 71 90 77 65 97 97 97 100 100 100 100 100 100 100 100 100 100 100 100 100 100 97 97 97 97 100 97 97 100 100 100 100 100 100 100 100 100
100 100 100 100 100 100 100 97 97 97 97 97 100 100 100 100 100 100 100 100 100 100 100 100 100 100 100 100 100 97 97 97 94 97 100 100 100 100 100 100 100 100 100
100 100 100 100 100 100 100 100 100 100 97 100 100 100 100 100 100 100 100 100 100 100 100 100 100 100 100 100 100 100 100 97 100 100 100 100 100 100 100 100 100 100 100
100 100 100 100 100 100 100 100 100 100 100 100 100 100 100 100 100 100 100 100 100 100 100 100 100 100 100 100 100 100 100 100 100 100 100 100 100 100 100 100 100 100 100
100 100 100 100 100 100 100 100 100 100 100 100 100 100 100 100 100 100 100 100 100 100 100 100 100 100 100 100 100 100 100 100 100 100 100 100 100 100 100 100 100 100 100
100 100 100 100 100 100 100 100 100 100 100 100 100 100 100 100 100 100 100 100 100 100 100 100 100 100 100 97 94 100 97 100 100 100 100 100 100 97 100 100 100 100 100
100 100 100 100 100 100 100 100 100 100 100 100 100 100 100 100 100 100 100 100 100 100 100 97 97 94 90 81 81 84 90 97 97 100 100 100 100 100 100 100 100 100 100
100 100 100 100 100 100 100 100 100 100 100 100 100 100 100 100 100 100 100 100 100 100 100 97 94 90 87 74 55 52 81 90 90 87 94 87 90 94 94 94 97 97 100
100 100 100 100 100 100 100 100 100 100 100 100 100 97 97 100 100 100 100 100 100 100 97 94 90 84 77 74 52 42 55 58 65 74 81 84 84 90 94 94 94 97 97
97 97 100 100 100 100 100 100 100 100 100 100 100 100 94 97 97 87 87 90 97 97 97 90 77 81 65 48 32 23 16 16 42 52 90 94 90 90 90 81 84 100 97
81 84 90 100 100 100 100 100 100 100 100 100 100 100 97 97 87 87 81 81 87 87 77 77 74 68 48 26 26 23 10 13 45 48 84 90 97 97 84 77 87 90 94
39 45 74 94 97 100 100 100 100 100 100 100 100 100 94 87 81 77 74 74 68 71 65 55 39 35 23 19 13 16 13 29 35 29 61 77 74 74 74 39 32 61 87
16 23 45 61 94 100 100 97 100 100 100 100 100 100 100 87 81 77 74 71 68 61 52 45 39 32 19 13 10 10 13 32 45 26 3 29 45 65 77 81 61 58 58
10 13 19 39 81 97 97 97 100 100 100 100 97 97 97 90 84 74 68 65 61 48 48 42 32 23 10 10 10 10 13 26 32 23 13 16 16 52 71 77 52 52 23
Height
5923 5923 5924 5924 5924 5925 5925 5925 5925 5924 5923 5922 5921 5920 5919 5917 5916 5915 5913 5912 5910 5909 5907 5906 5905 5904 5903 5902 5901 5900 5900 5899 5898 5897 5896 5896 5896 5896 5895 5896 5896 5896 5896
5925 5925 5926 5926 5926 5926 5926 5926 5926 5926 5925 5924 5923 5922 5920 5919 5917 5916 5915 5913 5912 5910 5908 5907 5906 5905 5904 5903 5903 5902 5901 5900 5899 5899 5898 5897 5897 5896 5896 5896 5896 5896 5896
5926 5926 5927 5928 5928 5928 5927 5927 5927 5927 5926 5925 5924 5923 5922 5920 5919 5917 5916 5915 5913 5911 5910 5908 5907 5906 5905 5904 5903 5903 5902 5901 5901 5900 5899 5899 5898 5898 5897 5897 5896 5896 5896
5927 5927 5928 5928 5929 5928 5928 5928 5928 5927 5927 5926 5925 5924 5923 5921 5920 5919 5917 5916 5914 5913 5911 5909 5907 5906 5905 5904 5904 5903 5902 5902 5901 5901 5900 5900 5899 5899 5898 5898 5897 5897 5897
5928 5928 5928 5928 5929 5929 5928 5928 5928 5927 5927 5926 5925 5924 5923 5922 5921 5919 5918 5916 5915 5913 5912 5910 5908 5907 5905 5904 5903 5903 5902 5902 5901 5901 5901 5901 5900 5899 5899 5899 5898 5898 5898
5928 5928 5928 5928 5928 5928 5928 5928 5928 5927 5927 5926 5925 5924 5924 5922 5921 5920 5918 5917 5915 5914 5912 5911 5909 5907 5906 5904 5903 5902 5902 5901 5901 5901 5900 5900 5900 5899 5899 5899 5898 5898 5898
5929 5928 5928 5928 5928 5928 5927 5927 5927 5926 5926 5926 5925 5924 5923 5922 5921 5920 5918 5916 5915 5914 5912 5911 5910 5908 5906 5905 5903 5902 5901 5901 5901 5900 5900 5900 5899 5899 5898 5898 5898 5898 5898
5929 5928 5928 5927 5927 5926 5926 5926 5925 5925 5925 5924 5924 5923 5922 5921 5920 5919 5917 5916 5914 5913 5912 5911 5910 5908 5907 5905 5903 5902 5901 5900 5900 5899 5899 5899 5899 5898 5898 5897 5897 5897 5897
5928 5927 5927 5926 5926 5925 5924 5924 5924 5923 5923 5922 5922 5921 5920 5919 5918 5917 5915 5914 5913 5912 5911 5910 5909 5908 5907 5905 5904 5902 5900 5899 5898 5898 5898 5898 5897 5897 5896 5896 5896 5896 5896
5927 5926 5926 5925 5924 5923 5923 5922 5922 5921 5921 5920 5920 5919 5918 5917 5916 5915 5913 5912 5911 5910 5909 5909 5908 5907 5906 5905 5903 5902 5900 5899 5898 5897 5897 5896 5896 5895 5895 5895 5895 5894 5894
5925 5925 5924 5924 5923 5922 5921 5921 5920 5919 5919 5918 5917 5916 5916 5915 5914 5913 5912 5910 5909 5909 5908 5907 5907 5906 5905 5904 5902 5901 5900 5898 5897 5896 5895 5894 5894 5893 5893 5893 5892 5892 5892
5923 5923 5923 5923 5922 5921 5920 5919 5918 5917 5916 5915 5915 5914 5913 5912 5912 5911 5909 5908 5907 5907 5906 5905 5905 5904 5903 5902 5901 5900 5899 5897 5896 5895 5894 5892 5891 5891 5890 5890 5890 5890 5890
5921 5921 5921 5921 5920 5919 5918 5917 5916 5915 5914 5913 5912 5911 5910 5910 5909 5908 5907 5906 5905 5904 5903 5903 5902 5902 5901 5900 5899 5898 5897 5896 5895 5893 5892 5890 5888 5888 5888 5887 5887 5887 5886
5919 5919 5919 5918 5917 5916 5915 5914 5913 5912 5912 5911 5909 5908 5907 5906 5906 5905 5904 5904 5903 5902 5901 5900 5899 5899 5898 5897 5896 5896 5895 5894 5892 5891 5890 5888 5887 5886 5885 5884 5883 5883 5883
5915 5915 5915 5914 5913 5912 5911 5910 5910 5909 5908 5907 5906 5905 5903 5902 5901 5900 5899 5899 5898 5897 5897 5896 5895 5895 5894 5893 5892 5892 5891 5890 5889 5888 5887 5886 5884 5883 5881 5880 5879 5879 5879
5911 5910 5910 5910 5909 5908 5907 5905 5904 5903 5902 5902 5901 5900 5899 5897 5896 5896 5895 5894 5893 5893 5892 5892 5891 5890 5889 5888 5888 5887 5886 5885 5884 5883 5882 5882 5880 5879 5878 5877 5875 5875 5874
5905 5905 5904 5904 5903 5902 5901 5900 5898 5897 5896 5895 5894 5894 5893 5892 5891 5890 5889 5888 5888 5887 5887 5886 5885 5884 5883 5883 5882 5881 5880 5879 5878 5877 5876 5876 5875 5874 5873 5872 5871 5870 5869
5898 5898 5898 5897 5896 5896 5894 5893 5892 5890 5889 5888 5887 5886 5886 5885 5884 5883 5882 5882 5881 5880 5880 5879 5878 5877 5875 5874 5873 5873 5872 5872 5871 5871 5870 5869 5868 5868 5867 5866 5865 5864 5864
5891 5890 5890 5889 5888 5887 5885 5884 5883 5882 5881 5879 5878 5878 5877 5877 5877 5876 5874 5874 5873 5873 5872 5870 5869 5868 5867 5865 5863 5863 5863 5863 5863 5863 5862 5862 5861 5860 5860 5860 5859 5858 5857
5882 5882 5881 5880 5878 5877 5876 5875 5874 5873 5872 5871 5870 5869 5868 5868 5868 5868 5866 5865 5864 5864 5863 5861 5860 5858 5857 5854 5852 5852 5853 5853 5853 5854 5854 5854 5853 5852 5852 5851 5851 5851 5850
5872 5872 5872 5871 5869 5867 5866 5865 5865 5864 5863 5862 5861 5860 5860 5859 5858 5857 5857 5856 5855 5854 5853 5852 5850 5848 5846 5843 5841 5841 5842 5843 5843 5844 5845 5845 5844 5843 5843 5843 5842 5843 5842
5862 5862 5862 5861 5860 5858 5857 5856 5855 5854 5854 5853 5852 5851 5850 5849 5847 5846 5845 5845 5844 5843 5842 5842 5839 5837 5835 5831 5828 5828 5830 5833 5833 5834 5836 5836 5836 5836 5835 5834 5834 5833 5833
5854 5853 5852 5851 5850 5848 5847 5846 5845 5844 5844 5843 5842 5840 5839 5838 5836 5834 5833 5833 5832 5832 5831 5831 5829 5826 5823 5820 5817 5817 5819 5822 5823 5826 5826 5827 5828 5828 5827 5826 5826 5825 5824
5845 5844 5843 5841 5840 5838 5837 5835 5834 5833 5833 5833 5831 5829 5828 5826 5824 5822 5823 5822 5822 5821 5820 5819 5817 5815 5812 5809 5807 5807 5809 5810 5813 5816 5818 5817 5819 5819 5819 5818 5818 5817 5817
5836 5835 5833 5832 5831 5828 5826 5825 5823 5822 5821 5820 5819 5817 5816 5815 5814 5813 5812 5811 5810 5810 5809 5808 5806 5804 5801 5798 5797 5797 5799 5801 5803 5806 5809 5810 5810 5810 5810 5810 5810 5810 5809
5827 5825 5824 5822 5821 5819 5817 5814 5812 5811 5809 5808 5807 5805 5804 5803 5802 5801 5800 5799 5798 5798 5798 5796 5795 5793 5790 5788 5788 5788 5789 5791 5793 5796 5799 5801 5801 5801 5801 5802 5802 5802 5801
Wind_Speed
9 8 7 5 4 2 1 2 4 6 7 9 11 12 11 11 10 10 11 11 11 11 10 10 9 9 9 10 10 10 9 9 10 10 10 10 9 8 6 4 2 2 2
8 7 5 3 1 1 2 4 5 7 8 9 11 12 11 11 10 10 11 12 12 12 12 11 10 9 8 8 9 9 9 8 8 8 9 9 9 8 6 4 3 2 2
7 5 3 1 2 3 4 5 6 7 8 9 10 10 10 10 10 10 11 12 13 13 13 12 12 10 9 8 8 9 9 9 8 7 7 8 8 8 7 5 3 2 3
6 5 2 1 2 3 4 4 6 7 8 9 9 9 8 8 9 11 11 12 12 12 12 12 12 12 10 9 9 9 9 9 8 7 6 7 7 7 6 6 5 3 3
6 5 3 2 2 3 3 4 5 7 8 9 8 8 7 7 8 10 11 11 11 11 11 11 11 12 11 10 9 9 9 9 9 8 7 5 6 6 6 6 6 5 4
6 5 4 4 3 3 3 4 5 7 8 9 8 8 8 8 9 10 11 11 11 10 10 10 11 12 12 11 10 9 9 8 8 8 8 7 6 7 6 6 6 7 7
8 7 6 7 6 6 5 5 6 7 8 9 9 9 10 10 11 12 13 13 12 10 9 8 9 11 12 12 11 10 9 9 8 8 8 7 7 8 7 7 7 8 9
11 11 10 10 10 10 9 8 8 9 9 10 10 11 12 13 15 16 16 15 13 12 9 8 8 9 10 11 12 12 11 10 9 9 8 8 8 8 8 8 8 9 10
13 14 12 12 12 12 11 11 10 10 11 11 12 13 14 15 17 18 18 17 15 13 12 10 9 8 9 10 11 12 12 11 10 9 9 10 10 10 10 10 9 9 9
13 14 14 14 14 14 13 13 12 12 12 13 13 14 16 17 17 18 18 17 16 15 14 12 11 9 8 9 9 10 11 12 12 11 10 10 12 11 12 12 11 11 11
13 13 14 14 16 16 15 14 14 13 14 14 15 16 17 17 17 18 18 18 17 17 16 15 14 12 11 9 9 10 11 11 12 11 11 11 12 12 13 13 13 13 13
13 14 14 15 16 17 17 16 15 15 15 16 17 18 18 18 18 19 19 18 18 17 17 18 17 16 14 12 11 11 11 11 11 11 11 11 12 13 13 14 14 14 15
14 14 15 16 18 18 18 18 18 18 18 18 19 20 20 20 21 20 21 21 20 20 19 20 20 20 19 17 15 14 13 13 12 12 12 13 12 13 14 14 15 16 16
18 18 18 19 20 21 22 22 22 22 22 23 23 24 24 24 24 24 24 24 23 23 23 23 22 22 23 22 20 18 17 16 15 14 13 14 14 14 15 15 15 16 17
23 23 23 23 24 25 25 26 26 27 27 27 27 28 29 29 28 28 28 28 27 27 26 26 26 26 26 25 25 24 23 21 20 19 17 17 18 17 17 17 17 17 17
28 28 28 28 28 28 29 30 30 31 31 31 32 32 33 34 34 33 32 32 32 31 31 30 30 30 29 29 28 28 27 26 24 23 23 22 22 21 21 20 20 19 19
33 32 32 32 32 32 33 34 34 35 36 36 36 36 36 37 38 38 37 37 37 36 35 35 35 35 34 33 32 32 31 30 29 28 27 27 26 25 25 24 23 23 22
38 37 36 37 37 37 38 38 38 39 40 40 40 40 41 41 42 42 41 41 41 41 41 41 40 41 41 40 38 36 36 35 33 32 31 30 30 28 27 27 27 26 26
42 42 42 42 43 42 43 43 42 41 42 43 43 44 45 44 44 44 44 44 44 44 44 45 45 46 46 45 43 40 39 38 36 34 33 33 32 31 30 28 28 29 29
46 45 45 45 46 46 45 44 43 43 43 45 46 46 47 47 46 46 46 47 47 47 47 47 48 49 49 48 46 44 42 40 39 37 35 34 34 33 31 30 29 29 30
45 45 44 45 46 46 44 43 42 43 44 45 46 46 47 48 49 49 49 48 48 48 48 48 49 50 51 51 51 48 44 42 40 38 36 35 36 35 33 32 31 30 29
40 40 40 40 41 42 42 42 42 43 44 46 47 47 48 50 51 52 49 48 49 48 48 48 50 51 51 51 50 46 42 41 41 38 37 35 35 35 35 34 32 31 29
39 39 40 40 41 42 43 43 44 45 46 47 49 50 50 52 53 52 50 50 50 50 50 50 50 51 50 48 47 44 43 42 41 39 39 37 35 35 35 35 33 31 30
41 42 43 44 45 46 47 48 49 49 50 50 51 52 53 54 54 53 53 53 53 53 52 51 50 50 48 46 45 44 42 41 40 39 38 38 35 35 35 33 31 29 28
40 41 43 44 45 47 48 49 50 51 51 51 52 53 54 55 55 56 55 55 54 53 52 51 49 48 46 43 41 42 42 41 40 39 36 36 35 34 33 31 30 27 26
37 37 38 39 40 41 43 45 46 47 49 50 51 52 53 54 54 55 55 54 54 52 51 50 48 45 43 40 39 39 40 41 40 39 35 34 34 33 32 29 28 27 25
Wind_Direction
138 144 147 144 137 123 57 9 2 360 1 4 6 9 13 17 22 26 28 28 25 23 21 17 13 13 15 15 15 15 15 16 19 21 22 22 23 27 31 33 40 64 49
140 146 151 159 157 352 341 337 338 341 344 349 356 2 8 14 18 23 25 24 22 18 15 11 5 0 359 358 359 360 2 6 10 14 15 15 14 16 17 17 4 329 302
151 152 158 206 316 332 340 339 336 337 341 344 350 358 6 14 18 20 19 19 18 17 15 11 7 359 353 346 342 341 344 347 354 0 4 5 6 8 10 9 357 326 295
173 174 188 252 303 322 337 345 344 341 342 343 346 353 3 13 15 13 12 11 12 13 13 11 8 3 357 349 339 333 331 334 338 345 349 351 349 353 357 3 0 342 311
203 210 221 246 279 308 328 341 346 344 340 339 338 341 348 356 0 359 358 358 1 5 8 9 7 5 1 354 344 334 326 324 328 334 338 341 326 332 340 346 349 344 327
227 236 245 256 270 285 306 325 334 337 335 332 329 325 326 330 334 339 341 343 346 351 358 4 7 6 3 357 349 336 325 318 318 321 325 328 319 317 323 325 330 330 319
248 253 261 266 269 272 281 295 310 319 321 320 315 309 308 310 315 321 325 326 328 331 338 349 357 359 0 359 353 341 327 317 312 310 312 315 308 304 304 305 311 321 317
259 262 266 270 271 272 275 282 292 300 306 305 302 297 296 299 305 312 315 315 314 312 314 323 338 349 355 357 356 350 338 324 312 302 301 304 300 299 295 293 297 306 316
265 266 267 270 271 270 271 276 282 288 292 294 292 291 292 296 302 306 308 308 305 301 298 302 313 330 343 350 353 353 348 338 324 310 302 297 294 296 294 292 290 293 301
273 271 271 270 270 270 270 271 275 279 282 284 284 285 289 295 300 304 305 305 300 295 289 288 293 304 318 332 339 344 344 343 337 326 312 297 292 293 292 292 290 289 290
281 278 277 275 274 273 272 271 271 274 277 279 281 284 289 292 297 302 303 303 300 294 287 282 282 287 294 307 318 324 329 335 336 335 325 307 300 295 292 291 291 290 289
287 287 286 283 282 280 277 274 272 273 276 279 282 285 287 289 293 296 299 301 301 296 290 283 280 279 281 287 295 302 310 318 324 328 325 316 310 304 298 293 290 290 290
287 290 293 291 288 287 285 281 278 278 280 282 284 287 288 289 290 292 295 298 298 297 293 289 284 279 278 277 279 284 292 298 304 309 314 315 315 310 306 301 294 289 288
285 286 289 290 289 289 289 287 285 284 284 284 286 288 289 290 290 289 291 292 294 295 295 294 291 285 279 276 275 276 279 283 287 294 300 303 305 304 303 301 297 291 287
282 283 284 285 285 287 288 289 288 288 288 287 288 290 291 292 293 293 293 293 294 296 297 296 294 289 283 279 275 274 277 278 280 284 288 291 294 296 296 296 295 292 288
278 279 281 281 282 283 285 286 288 288 289 289 289 289 291 292 293 294 294 295 295 296 297 296 295 292 289 284 279 276 276 278 278 279 282 283 285 287 288 289 289 288 287
278 279 280 281 282 283 284 284 286 287 287 287 288 288 288 289 291 292 293 294 295 296 296 295 294 292 290 286 281 278 275 276 278 278 279 281 282 281 282 282 282 282 282
280 280 281 282 283 284 285 285 286 286 286 287 286 287 287 287 288 289 290 291 293 294 294 293 292 291 288 285 280 276 273 273 275 277 278 280 281 280 278 277 278 278 278
282 283 283 284 284 283 284 284 285 285 284 285 286 287 287 288 288 288 290 290 291 292 292 292 292 292 289 286 283 278 274 272 273 276 277 278 279 279 278 276 275 275 275
281 281 281 282 282 281 281 282 282 282 283 283 284 285 286 287 287 287 287 287 289 290 290 291 293 293 292 287 284 281 276 273 272 274 277 279 279 279 279 278 276 273 272
279 279 279 278 278 278 279 279 279 279 279 280 280 281 283 285 285 285 284 285 287 289 289 290 293 295 294 289 284 280 274 271 271 272 275 277 278 280 280 280 280 276 272
281 281 280 278 278 277 277 277 277 277 277 279 280 280 281 282 282 283 282 283 285 287 289 291 294 294 294 291 285 278 271 269 269 271 274 273 275 278 281 282 282 280 276
283 282 282 281 280 279 279 278 278 278 278 279 280 280 280 281 281 281 281 283 286 287 289 291 293 293 293 289 283 275 270 267 266 269 272 273 274 276 279 281 281 280 278
282 282 281 281 281 281 280 280 280 280 280 280 279 280 281 282 283 284 285 286 287 288 288 289 291 292 290 286 279 272 267 264 263 265 269 272 274 275 278 280 279 279 277
283 281 280 279 279 280 280 280 280 280 281 280 280 280 280 281 281 282 283 284 284 285 286 287 288 289 288 283 274 267 262 261 262 263 264 269 273 275 277 277 277 276 275
284 283 282 281 280 280 280 281 281 282 282 282 282 281 281 281 280 281 281 281 282 282 283 285 285 285 285 281 271 263 259 259 259 259 262 265 270 275 276 275 274 273 274